User: anonymous   Login
Location: アルンシュタイン
(50.0000°N, 10.0000°E)
Time: 20:51:31
(UTC+01:00)
Language:

KKS-1 - Orbit

View from above orbital plane
View from above orbital plane
View from above satellite
View from above satellite

Ground track
Ground track

The orbit data is extracted from the following two-line orbital elements,

1 33499U 09002H   22019.56475230  .00000519  00000-0  83546-4 0  9990
2 33499  98.2391 258.9630 0010328  73.2621 286.9720 14.75785602698282
Epoch (UTC): 19 January 2022 13:33:14
Eccentricity: 0.0010328
inclination: 98.2391°
perigee height: 635 km
apogee height: 650 km
right ascension of ascending node: 258.9630°
argument of perigee: 73.2621°
revolutions per day: 14.75785602
mean anomaly at epoch: 286.9720°
orbit number at epoch: 69828

The dashed part of the orbit path shows where the satellite is in the earth's shadow,  

DLR